Regional Weather Roundup
Issued by NWS

Home | Current Version | Previous Version | Text Only | Print | Product List | Glossary Off
Versions: 1 2 3 4 5 6 7 8 9 10 11 12 13 14 15 16 17 18 19 20 21 22 23 24 25 26 27 28 29 30 31 32 33 34 35 36 37 38 39 40 41 42 43 44 45 46 47 48 49 50

867
ASUS43 KMPX 241110
RWRMN
WEATHER ROUNDUP FOR MINNESOTA
NATIONAL WEATHER SERVICE TWIN CITIES/CHANHASSEN MN
600 AM CDT WED AUG 24 2016


NOTE: "FAIR" INDICATES FEW OR NO CLOUDS BELOW 12,000 FEET WITH NO
SIGNIFICANT WEATHER AND/OR OBSTRUCTIONS TO VISIBILITY. N/A MEANS
CURRENT SKY AND/OR WEATHER CONDITIONS ARE NOT AVAILABLE.

MNZ060>063-068>070-241200-
   Twin Cities Metro

CITY           SKY/WX    TMP DP  RH WIND       PRES   REMARKS
TWIN CITIES    CLOUDY    69  66  90 NW6       29.82R
ST PAUL        CLOUDY    68  67  96 W3        29.82R
CRYSTAL        CLOUDY    68  64  87 W5        29.81R
BLAINE         CLOUDY    70  70 100 CALM      29.82R
LAKEVILLE      CLOUDY    66  66 100 CALM      29.81S
EDEN PRAIRIE   MOCLDY    67  65  93 W3        29.81R
LAKEVILLE      CLOUDY    66  66 100 CALM      29.81S
SOUTH ST PAUL  CLOUDY    68  68  99 CALM      29.81R
LAKE ELMO      CLOUDY    68  68 100 W5        29.83R
$$
MNZ001>005-007-008-013>017-022>024-027-028-241200-
   Northwest Minnesota

CITY           SKY/WX    TMP DP  RH WIND       PRES   REMARKS
BEMIDJI        CLOUDY    65  59  80 W6        29.81R
HALLOCK        CLEAR     54  52  94 CALM      29.77S
ROSEAU         MOCLDY    63  57  82 SW6       29.77S
WARROAD        CLOUDY    64  61  88 W5        29.77S
THIEF RVR FALL PTCLDY    56  53  90 S3        29.82S
CROOKSTON      PTCLDY    54  52  94 W5        29.83R
FOSSTON        CLEAR     54  50  87 CALM      29.83F
DETROIT LAKES  CLEAR     63  55  77 NW3       29.86S
MOORHEAD       CLEAR     55  52  88 SW3       29.86S
PARK RAPIDS    CLOUDY    66  60  81 W7        29.83R
MAHNOMEN       FAIR      58  55  91 W7        29.83F
$$
MNZ006-009>011-018-025>026-241200-
   North Central Minnesota

CITY           SKY/WX    TMP DP  RH WIND       PRES   REMARKS
BAUDETTE       CLOUDY    67  64  90 W6        29.76R
FLAG ISLAND    CLOUDY    68  64  88 W3        29.73R
INTL FALLS     CLOUDY    69  65  86 VRB3      29.76R
WASKISH        MOCLDY    68  66  94 W10       29.78S
BIG FORK       CLOUDY    66  64  94 S5        29.79F
LONGVILLE      CLOUDY    66  64  94 SE3       29.81S
GRAND RAPIDS   CLOUDY    64  63  96 S5        29.83S
CRANE LAKE     CLEAR     63  63 100 S5        29.80F
ORR            CLEAR     63  61  94 CALM      29.77F
COOK           CLEAR     63  63 100 S3        29.81S
WALKER         CLOUDY    67  64  92 W7        29.81S
$$
MNZ012-019>021-037-241200-
   Northeast Minnesota

CITY           SKY/WX    TMP DP  RH WIND       PRES   REMARKS
DULUTH         CLOUDY    66  63  90 SW3       29.82S
ELY            CLOUDY    63  61  94 CALM      29.83S
HIBBING        FOG       59  59 100 SE3       29.82S VSB 1/2
EVELETH        CLOUDY    60  60  98 CALM      29.84S
DULUTH HARBOR  CLOUDY    70  64  83 SW3       29.81S
TWO HARBORS    CLOUDY    63  57  82 CALM      29.80S
SILVER BAY     CLOUDY    55  55 100 CALM      29.81S
GRAND MARAIS     N/A     63  61  93 N3        29.81F
G MARAIS ARPRT CLOUDY    61  57  88 CALM      29.86F FOG
$$
MNZ029>031-032-039>041-046>048-054>057-064-241200-
   West Central Minnesota

CITY           SKY/WX    TMP DP  RH WIND       PRES   REMARKS
FERGUS FALLS   CLEAR     61  61 100 NW6       29.88R
WHEATON        CLEAR     61  55  82 W6        29.90R
MORRIS         CLEAR     59  57  94 NW7       29.87R
ALEXANDRIA     CLOUDY    68  65  90 NW7       29.87R
ELBOW LAKE     FAIR      61  60  95 NW6       29.88R
WADENA         CLOUDY    64  61  88 W5        29.84R
GLENWOOD       CLEAR     66  66 100 W6        29.86R
APPLETON       CLEAR     61  55  82 W5        29.87R
BENSON         CLOUDY    66  63  88 N10       29.86R
ORTONVILLE     CLEAR     64  52  63 NW8       29.89R
MADISON        CLEAR     61  52  72 NW9       29.89R
WILLMAR        CLOUDY    68  66  94 W5        29.85S FOG
$$
MNZ033>034-036-042>043-049>051-058-059-241200-
   Central Minnesota

CITY           SKY/WX    TMP DP  RH WIND       PRES   REMARKS
ST CLOUD       CLOUDY    67  67 100 CALM      29.82S
SAUK CENTRE    CLOUDY    66  65  97 W6        29.85S
PAYNESVILLE    CLOUDY    66  67 100 CALM      29.84S
AITKIN         CLOUDY    70  63  78 CALM      29.81S
PINE RIVER     CLOUDY    64  64 100 CALM      29.85S
BRAINERD       CLOUDY    65  64  97 SW5       29.82F
STAPLES        CLOUDY    64  64 100 W6        29.83S
LONG PRAIRIE   CLOUDY    64  64 100 SW3       29.85S
LITTLE FALLS   CLOUDY    64  63  94 CALM      29.83F FOG
LITCHFIELD     CLOUDY    68  66  94 CALM      29.84S FOG
BUFFALO        CLOUDY    66  64  93 CALM      29.84R
MAPLE LAKE     CLOUDY    67  66  97 CALM      29.83S
HUTCHINSON     CLOUDY    67  67  99 CALM      29.84S FOG
$$
MNZ037-044-045-052-053-241200-
   East Central Minnesota

CITY           SKY/WX    TMP DP  RH WIND       PRES   REMARKS
PRINCETON      CLOUDY    68  66  94 CALM      29.82S
MORA           CLOUDY    64  63  94 W3        29.83F
CAMBRIDGE      CLOUDY    68  64  88 CALM      29.80S
RUSH CITY      LGT RAIN  66  65  95 CALM      29.82S
MOOSE LAKE     CLOUDY    64  63  94 CALM      29.80F
HINCKLEY       CLOUDY    66  66 100 CALM      29.82S
CLOQUET        CLOUDY    64  63  94 CALM      29.82S
MCGREGOR       CLOUDY    64  63  94 CALM      29.82F
$$
MNZ071>073-080-081-089-090-097-098-241200-
   Southwest Minnesota

CITY           SKY/WX    TMP DP  RH WIND       PRES   REMARKS
MONTEVIDEO     PTCLDY    64  63  94 N8        29.87R
GRANITE FALLS  CLEAR     65  61  85 W10       29.86S
CANBY          CLEAR     60  52  76 NW9       29.90R
MARSHALL       CLEAR     63  54  72 NW13      29.87R
REDWOOD FALLS  CLEAR     66  64  93 W7        29.84R
OLIVIA         CLOUDY    66  64  94 W3        29.83S
PIPESTONE      CLEAR     64  57  77 NW10      29.90R
WINDOM         CLOUDY    68  64  88 W8        29.86R
WORTHINGTON    CLEAR     68  66  93 NW8       29.89R
JACKSON        CLOUDY    68  64  88 CALM      29.87R
TRACY          CLEAR     64  57  79 NW10      29.87R
SLAYTON        CLEAR     64  57  77 NW9       29.89R
$$
MNZ065>067-074>077-082>085-091>093-241200-
   South Central Minnesota

CITY           SKY/WX    TMP DP  RH WIND       PRES   REMARKS
MANKATO        CLOUDY    70  68  94 SW6       29.83R
NEW ULM        CLOUDY    68  66  94 CALM      29.83R
ST JAMES       CLOUDY    64  63  94 CALM      29.85R
FAIRMONT         N/A    N/A N/A N/A MISG        N/A
GLENCOE        CLOUDY    67  67 100 SW3       29.83R
FARIBAULT      CLOUDY    70  68  94 CALM      29.83S
OWATONNA       CLOUDY    70  66  88 S5        29.83R
WASECA         CLOUDY    70  68  94 SW6       29.84S FOG
ALBERT LEA     CLOUDY    73  72  94 SW6       29.83F FOG
$$
MNZ078>079-086>088-094>096-241200-
   Southeast Minnesota

CITY           SKY/WX    TMP DP  RH WIND       PRES   REMARKS
ROCHESTER      CLOUDY    68  68 100 S7        29.85R
RED WING       CLOUDY    70  66  88 CALM      29.80S
STANTON        CLOUDY    68  66  94 CALM      29.80F
DODGE CENTER   CLOUDY    70  66  88 SW8       29.84R
WINONA         CLOUDY    68  64  88 CALM      29.82S
AUSTIN         CLOUDY    70  68  94 S8        29.84R FOG
PRESTON        CLOUDY    67  65  94 S5        29.86R
$$
ABBREVIATIONS USED IN REMARKS
   TC - TEMPERATURES IN CELSIUS
  WCI - WIND CHILL INDEX
   HX - HEAT INDEX
  VSB - VISIBILITY
$$




USA.gov is the U.S. government's official web portal to all federal, state and local government web resources and services.